Location: B?lite?ti
(46.2833°N, 22.7333°E)
Time: 04:50:13
(UTC+00:00)

SKYMED 2 - Pass Details

Date: 24 January 2021
Orbit: 621 x 623 km, 97.9° (Epoch: 26 February)

Event Time Altitude Azimuth Distance (km) Brightness Sun altitude
Rises 16:42:42 0° 12° (NNE) 2,915 6.8 -13.9°
Reaches altitude 10° 16:44:54 10° 13° (NNE) 2,003 5.9 -14.2°
Maximum altitude 16:49:15 87° 289° (WNW) 630 3.6 -15.0°
Drops below altitude 10° 16:53:36 10° 196° (SSW) 1,986 6.5 -15.7°
Sets 16:55:46 0° 196° (SSW) 2,887 7.4 -16.1°
